Flag for U.S.A. Weather past 2 weeks in Ocala, Florida, U.S.A.

Now
64 °F

Mostly cloudy.


Feels Like: 64 °F
Forecast: 60 / 71 °F
Wind: 13 mph from West

Location: Ocala Municipal


UV Index: 0 (Low)

Visibility: 10 mi


Pressure: 29.93 "Hg

Humidity: 73%

Dew point: 55 °F

Location of OcalaLocation

Historic Weather in Ocala

°F

Ocala temperature yesterday

Maximum temperature yesterday: 75 °F (at 3:50 PM)
Minimum temperature yesterday: 64 °F (at 12:15 AM)
Average temperature yesterday: 67 °F

Past Weeks' High & Low Weather Summary

 TemperatureHumidityPressure
High91 °F (Apr 7, 2:50 PM)100% (Apr 8, 8:50 AM)30.32 "Hg (Apr 8, 8:50 AM)
Low45 °F (Apr 16, 5:15 AM)30% (Apr 10, 3:50 PM)29.72 "Hg (Apr 8, 4:55 AM)
Average66 °F69%30.05 "Hg
* Reported Apr 4 12:50 PM — Apr 19 12:50 PM, Ocala, Weather by CustomWeather, © 2014

Note: Actual official high and low records may vary slightly from our data, if they occured in-between our weather recording intervals... More about our weather records

Advertising

Historic Weather Conditions — Data for Previous 24 hours

 ConditionsComfort  
Time TempWeatherWind HumidityBarometerVisibility
12:50 PM
Apr 19
64 °FMostly cloudy.13 mph73%29.93 "Hg10 mi
11:50 AM66 °FMostly cloudy.14 mph73%29.93 "Hg7 mi
10:50 AM66 °FMostly cloudy.9 mph73%29.93 "Hg7 mi
9:50 AM64 °FLight rain. Fog.12 mph83%29.91 "Hg6 mi
8:50 AM66 °FMostly cloudy.13 mph83%29.90 "Hg10 mi
7:50 AM64 °FPassing clouds.8 mph88%29.89 "Hg10 mi
6:50 AM64 °FPassing clouds.8 mph83%29.88 "Hg10 mi
6:35 AM64 °FPassing clouds.8 mph83%29.88 "Hg10 mi
6:15 AM66 °FPassing clouds.8 mph83%29.88 "Hg10 mi
5:55 AM66 °FMostly cloudy.10 mph83%29.88 "Hg10 mi
5:35 AM66 °FMostly cloudy.9 mph83%29.88 "Hg10 mi
5:15 AM68 °FMostly cloudy.12 mph78%29.88 "Hg10 mi
4:55 AM68 °FMostly cloudy.12 mph83%29.87 "Hg10 mi
4:35 AM66 °FOvercast.7 mph88%29.87 "Hg10 mi
4:15 AM66 °FMostly cloudy.9 mph88%29.87 "Hg10 mi
3:55 AM66 °FLow clouds.8 mph88%29.88 "Hg10 mi
3:35 AM66 °FMostly cloudy.9 mph88%29.89 "Hg10 mi
3:15 AM66 °FMostly cloudy.8 mph88%29.89 "Hg10 mi
2:55 AM66 °FOvercast.9 mph88%29.89 "Hg10 mi
2:35 AM66 °FPassing clouds.7 mph83%29.90 "Hg10 mi
2:15 AM66 °FMostly cloudy.8 mph83%29.91 "Hg10 mi
1:55 AM66 °FOvercast.5 mph83%29.91 "Hg10 mi
1:35 AM66 °FPassing clouds.5 mph83%29.92 "Hg10 mi
1:15 AM66 °FPassing clouds.6 mph83%29.92 "Hg10 mi
12:55 AM66 °FPassing clouds.5 mph83%29.92 "Hg10 mi
12:35 AM64 °FPassing clouds.5 mph88%29.93 "Hg10 mi
12:15 AM66 °FPassing clouds.3 mph83%29.93 "Hg10 mi
11:55 PM
Apr 18
64 °FClear.3 mph88%29.93 "Hg10 mi
11:35 PM66 °FClear.3 mph83%29.93 "Hg10 mi
11:15 PM66 °FPassing clouds.5 mph83%29.94 "Hg10 mi
10:55 PM66 °FPassing clouds.3 mph83%29.94 "Hg10 mi
10:35 PM66 °FPartly cloudy.3 mph83%29.94 "Hg10 mi
10:15 PM66 °FOvercast.No wind88%29.95 "Hg7 mi
9:55 PM66 °FPassing clouds.3 mph88%29.95 "Hg10 mi
9:35 PM66 °FMostly cloudy.No wind88%29.95 "Hg10 mi
9:15 PM66 °FPassing clouds.No wind88%29.94 "Hg10 mi
8:55 PM66 °FPartly sunny.No wind88%29.93 "Hg10 mi
8:35 PM66 °FBroken clouds.No wind88%29.93 "Hg10 mi
8:15 PM66 °FBroken clouds.6 mph88%29.94 "Hg9 mi
7:55 PM68 °FBroken clouds.8 mph83%29.95 "Hg7 mi
6:50 PM68 °FPartly sunny.8 mph83%29.95 "Hg7 mi
5:50 PM70 °FMostly cloudy.12 mph83%29.95 "Hg7 mi
4:50 PM72 °FLight rain. Fog.6 mph78%29.95 "Hg6 mi
3:50 PM75 °FLight rain. Fog.6 mph74%29.97 "Hg6 mi
2:50 PM73 °FMore clouds than sun.6 mph78%29.99 "Hg10 mi
1:50 PM73 °FMostly cloudy.9 mph78%30.01 "Hg7 mi
Weather by CustomWeather, © 2014

See weather overview